| time (UTC) | temp F | wind direction | speed MPH | gust MPH | rain 1hr in | rain 24hr in | rain mn in | humidity % | barometer mb |
| 20260906093050 | 50 | 206 | 0.0 | 0.0 | 0.00 | 0.00 | 0.00 | 79 | 1010.2 |
| 20260906091550 | 51 | 206 | 0.0 | 0.0 | 0.00 | 0.00 | 0.00 | 78 | 1010.3 |
| 20260906090046 | 51 | 206 | 0.0 | 0.0 | 0.00 | 0.00 | 0.00 | 78 | 1010.4 |
| 20260906084544 | 52 | 206 | 0.0 | 0.0 | 0.00 | 0.00 | 0.00 | 77 | 1010.4 |
| 20260906083042 | 52 | 206 | 0.0 | 0.0 | 0.00 | 0.00 | 0.00 | 76 | 1010.5 |
| 20260906081542 | 52 | 206 | 0.0 | 0.0 | 0.00 | 0.00 | 0.00 | 76 | 1010.5 |
| 20260906080038 | 52 | 206 | 0.0 | 0.0 | 0.00 | 0.00 | 0.00 | 75 | 1010.6 |
| 20260906074540 | 53 | 206 | 0.0 | 0.0 | 0.00 | 0.00 | 0.00 | 74 | 1010.6 |
| 20260906073041 | 54 | 206 | 0.0 | 0.0 | 0.00 | 0.00 | 0.00 | 73 | 1010.6 |
| 20260906071533 | 54 | 206 | 0.0 | 0.0 | 0.00 | 0.00 | 0.00 | 72 | 1010.6 |
| 20260906070029 | 54 | 206 | 0.0 | 0.0 | 0.00 | 0.00 | 0.00 | 72 | 1010.6 |
| 20260906064530 | 55 | 206 | 0.0 | 0.0 | 0.00 | 0.00 | 0.00 | 71 | 1010.7 |
| 20260906063028 | 55 | 206 | 0.0 | 0.0 | 0.00 | 0.00 | 0.00 | 71 | 1010.6 |
| 20260906061528 | 56 | 206 | 0.0 | 0.0 | 0.00 | 0.00 | 0.00 | 70 | 1010.6 |
| 20260906060033 | 56 | 206 | 0.0 | 0.0 | 0.00 | 0.00 | 0.00 | 69 | 1010.7 |
| 20260906054528 | 57 | 206 | 0.0 | 0.0 | 0.00 | 0.00 | 0.00 | 67 | 1010.7 |
| 20260906053031 | 57 | 206 | 0.0 | 0.0 | 0.00 | 0.00 | 0.00 | 66 | 1010.7 |
| 20260906051526 | 58 | 206 | 0.0 | 0.0 | 0.00 | 0.00 | 0.00 | 65 | 1010.8 |
| 20260906050025 | 59 | 206 | 0.0 | 0.0 | 0.00 | 0.00 | 0.00 | 63 | 1010.8 |
| 20260906044525 | 59 | 206 | 0.0 | 0.0 | 0.00 | 0.00 | 0.00 | 61 | 1010.8 |
| 20260906043027 | 60 | 206 | 0.0 | 0.0 | 0.00 | 0.00 | 0.00 | 60 | 1010.8 |
| 20260906041529 | 61 | 206 | 0.0 | 0.0 | 0.00 | 0.00 | 0.00 | 58 | 1010.7 |
| 20260906040032 | 61 | 206 | 0.0 | 0.0 | 0.00 | 0.00 | 0.00 | 57 | 1010.5 |
| 20260906034529 | 62 | 205 | 0.0 | 0.0 | 0.00 | 0.00 | 0.00 | 56 | 1010.5 |
| 20260906033022 | 63 | 206 | 0.0 | 0.0 | 0.00 | 0.00 | 0.00 | 54 | 1010.4 |
| 20260906031534 | 64 | 206 | 0.0 | 0.0 | 0.00 | 0.00 | 0.00 | 53 | 1010.2 |
| 20260906030053 | 65 | 206 | 0.0 | 0.0 | 0.00 | 0.00 | 0.00 | 51 | 1010.1 |
| 20260906024556 | 66 | 206 | 0.0 | 1.0 | 0.00 | 0.00 | 0.00 | 50 | 1009.9 |
| 20260906023107 | 68 | 206 | 0.0 | 0.0 | 0.00 | 0.00 | 0.00 | 48 | 1010.0 |
| 20260906021554 | 69 | 206 | 0.0 | 0.0 | 0.00 | 0.00 | 0.00 | 46 | 1010.0 |
| 20260906020057 | 70 | 206 | 0.0 | 0.0 | 0.00 | 0.00 | 0.00 | 43 | 1010.0 |
| 20260906014550 | 71 | 204 | 0.0 | 2.0 | 0.00 | 0.00 | 0.00 | 43 | 1010.1 |
| 20260906013050 | 71 | 171 | 0.0 | 1.0 | 0.00 | 0.00 | 0.00 | 44 | 1010.1 |
| 20260906011553 | 71 | 115 | 0.0 | 1.0 | 0.00 | 0.00 | 0.00 | 42 | 1010.2 |
| 20260906010049 | 72 | 245 | 0.0 | 2.0 | 0.00 | 0.00 | 0.00 | 41 | 1010.1 |
| 20260906004555 | 73 | 315 | 2.0 | 4.0 | 0.00 | 0.00 | 0.00 | 42 | 1010.0 |
| 20260906003051 | 73 | 348 | 2.0 | 5.0 | 0.00 | 0.00 | 0.00 | 42 | 1010.0 |
| 20260906001645 | 73 | 323 | 1.0 | 4.0 | 0.00 | 0.00 | 0.00 | 41 | 1010.0 |
| 20260906000047 | 73 | 200 | 0.0 | 3.0 | 0.00 | 0.00 | 0.00 | 40 | 1010.0 |
| 20260905234543 | 74 | 283 | 1.0 | 4.0 | 0.00 | 0.00 | 0.00 | 37 | 1010.0 |
| 20260905233049 | 74 | 269 | 0.0 | 3.0 | 0.00 | 0.00 | 0.00 | 39 | 1010.1 |
| 20260905231540 | 74 | 141 | 0.0 | 4.0 | 0.00 | 0.00 | 0.00 | 40 | 1010.2 |
| 20260905230039 | 74 | 199 | 1.0 | 3.0 | 0.00 | 0.00 | 0.00 | 39 | 1010.3 |
| 20260905224538 | 74 | 212 | 0.0 | 4.0 | 0.00 | 0.00 | 0.00 | 40 | 1010.4 |
| 20260905223037 | 74 | 103 | 0.0 | 3.0 | 0.00 | 0.00 | 0.00 | 39 | 1010.4 |
| 20260905221544 | 73 | 243 | 0.0 | 4.0 | 0.00 | 0.00 | 0.00 | 39 | 1010.6 |
| 20260905220035 | 74 | 32 | 1.0 | 5.0 | 0.00 | 0.00 | 0.00 | 37 | 1010.7 |
| 20260905214535 | 75 | 244 | 0.0 | 6.0 | 0.00 | 0.00 | 0.00 | 38 | 1010.8 |
| 20260905213033 | 75 | 200 | 1.0 | 4.0 | 0.00 | 0.00 | 0.00 | 36 | 1010.9 |
| 20260905211533 | 75 | 195 | 0.0 | 4.0 | 0.00 | 0.00 | 0.00 | 38 | 1010.9 |
| 20260905204532 | 74 | 226 | 0.0 | 5.0 | 0.00 | 0.00 | 0.00 | 38 | 1011.0 |
| 20260905203007 | 74 | 297 | 0.0 | 4.0 | 0.00 | 0.00 | 0.00 | 37 | 1011.0 |
| 20260905201549 | 75 | 255 | 1.0 | 3.0 | 0.00 | 0.00 | 0.00 | 36 | 1011.0 |
| 20260905200021 | 76 | 187 | 1.0 | 6.0 | 0.00 | 0.00 | 0.00 | 36 | 1011.0 |
| 20260905194536 | 74 | 204 | 1.0 | 4.0 | 0.00 | 0.00 | 0.00 | 38 | 1011.1 |
| 20260905193041 | 73 | 296 | 2.0 | 5.0 | 0.00 | 0.00 | 0.00 | 37 | 1011.2 |
| 20260905191530 | 72 | 207 | 1.0 | 5.0 | 0.00 | 0.00 | 0.00 | 38 | 1011.2 |
| 20260905190047 | 73 | 295 | 1.0 | 5.0 | 0.00 | 0.00 | 0.00 | 37 | 1011.3 |
| 20260905184540 | 72 | 143 | 0.0 | 3.0 | 0.00 | 0.00 | 0.00 | 39 | 1011.2 |
| 20260905183038 | 73 | 236 | 0.0 | 4.0 | 0.00 | 0.00 | 0.00 | 41 | 1011.2 |
| 20260905181537 | 73 | 294 | 1.0 | 4.0 | 0.00 | 0.00 | 0.00 | 40 | 1011.1 |
| 20260905180048 | 73 | 203 | 0.0 | 5.0 | 0.00 | 0.00 | 0.00 | 38 | 1011.0 |
| 20260905174531 | 71 | 202 | 0.0 | 2.0 | 0.00 | 0.00 | 0.00 | 45 | 1011.1 |
| 20260905173027 | 69 | 234 | 0.0 | 2.0 | 0.00 | 0.00 | 0.00 | 49 | 1011.2 |
| 20260905171528 | 68 | 96 | 0.0 | 2.0 | 0.00 | 0.00 | 0.00 | 53 | 1011.2 |
| 20260905170020 | 67 | 233 | 0.0 | 0.0 | 0.00 | 0.00 | 0.00 | 54 | 1011.1 |
| 20260905164514 | 64 | 216 | 0.0 | 0.0 | 0.00 | 0.02 | 0.00 | 71 | 1011.1 |
| 20260905163009 | 62 | 216 | 0.0 | 0.0 | 0.00 | 0.02 | 0.00 | 73 | 1011.1 |
| 20260905161511 | 59 | 216 | 0.0 | 0.0 | 0.00 | 0.02 | 0.00 | 77 | 1011.0 |
| 20260905154603 | 54 | 216 | 0.0 | 0.0 | 0.00 | 0.03 | 0.00 | 84 | 1011.2 |
| 20260905153053 | 53 | 216 | 0.0 | 0.0 | 0.00 | 0.03 | 0.00 | 86 | 1011.2 |
| 20260905151551 | 50 | 218 | 0.0 | 0.0 | 0.00 | 0.03 | 0.00 | 89 | 1011.1 |
| 20260905150051 | 48 | 218 | 0.0 | 0.0 | 0.00 | 0.03 | 0.00 | 90 | 1011.1 |
| 20260905144549 | 47 | 218 | 0.0 | 0.0 | 0.00 | 0.03 | 0.00 | 89 | 1011.1 |
| 20260905143048 | 47 | 218 | 0.0 | 0.0 | 0.00 | 0.03 | 0.00 | 89 | 1011.1 |
| 20260905141546 | 46 | 218 | 0.0 | 0.0 | 0.00 | 0.03 | 0.00 | 89 | 1011.0 |
| 20260905140042 | 46 | 218 | 0.0 | 0.0 | 0.00 | 0.03 | 0.00 | 89 | 1010.8 |
| 20260905134613 | 46 | 218 | 0.0 | 0.0 | 0.00 | 0.03 | 0.00 | 89 | 1010.7 |
| 20260905133008 | 46 | 218 | 0.0 | 0.0 | 0.00 | 0.03 | 0.00 | 89 | 1010.6 |
| 20260905131505 | 47 | 218 | 0.0 | 0.0 | 0.00 | 0.03 | 0.00 | 91 | 1010.4 |
| 20260905130004 | 47 | 218 | 0.0 | 0.0 | 0.00 | 0.03 | 0.00 | 91 | 1010.2 |
| 20260905124503 | 47 | 217 | 0.0 | 0.0 | 0.00 | 0.06 | 0.00 | 90 | 1010.2 |
| 20260905123001 | 46 | 211 | 0.0 | 0.0 | 0.00 | 0.06 | 0.00 | 87 | 1010.3 |
| 20260905121602 | 46 | 211 | 0.0 | 0.0 | 0.00 | 0.06 | 0.00 | 86 | 1010.3 |
| 20260905120109 | 47 | 211 | 0.0 | 0.0 | 0.00 | 0.06 | 0.00 | 86 | 1010.4 |
| 20260905114608 | 47 | 211 | 0.0 | 0.0 | 0.00 | 0.09 | 0.00 | 86 | 1010.4 |
| 20260905113058 | 47 | 211 | 0.0 | 0.0 | 0.00 | 0.09 | 0.00 | 85 | 1010.4 |
| 20260905111641 | 48 | 211 | 0.0 | 0.0 | 0.00 | 0.09 | 0.00 | 85 | 1010.5 |
| 20260905110051 | 48 | 211 | 0.0 | 0.0 | 0.00 | 0.09 | 0.00 | 84 | 1010.6 |
| 20260905104549 | 48 | 211 | 0.0 | 0.0 | 0.00 | 0.09 | 0.00 | 83 | 1010.5 |
| 20260905103047 | 49 | 211 | 0.0 | 0.0 | 0.00 | 0.09 | 0.00 | 82 | 1010.4 |
| 20260905101545 | 49 | 211 | 0.0 | 0.0 | 0.00 | 0.09 | 0.00 | 82 | 1010.5 |
| 20260905100042 | 49 | 211 | 0.0 | 0.0 | 0.00 | 0.09 | 0.00 | 82 | 1010.6 |
| 20260905094541 | 50 | 211 | 0.0 | 0.0 | 0.00 | 0.09 | 0.00 | 82 | 1010.5 |